Regional Weather Roundup
Issued by NWS Goodland, KS

Home | Current Version | Previous Version | Graphics & Text | Print | Product List | Glossary On
Versions: 1 2 3 4 5 6 7 8 9 10 11 12 13 14 15 16 17 18 19 20 21 22 23 24 25 26 27 28 29 30 31 32 33 34 35 36 37 38 39 40 41 42 43 44 45 46 47 48 49 50
000
ASUS43 KGLD 281608
RWRGLD

GOODLAND FORECAST AREA HOURLY WEATHER ROUNDUP
NATIONAL WEATHER SERVICE GOODLAND KS
1000 AM MDT TUE JUL 28 2015

...OFFICIAL OBSERVATIONS...

CITY           SKY/WX    TMP DP  RH WIND       PRES   REMARKS
GOODLAND KS    SUNNY     77  43  29 N22G33    30.05R
HILL CITY KS   SUNNY     84  65  52 N24G33    29.91R
IMPERIAL NEB   SUNNY     78  42  27 N21       30.04R
MCCOOK NEB     SUNNY     79  50  36 N18       29.99R
AKRON CO         N/A    N/A N/A N/A MISG      30.14R
BURLINGTON CO  SUNNY     74  41  30 N20G30    30.10R
LIMON CO       SUNNY     69  36  29 N17G24    30.17S
$$

...UNOFFICIAL OBSERVATIONS...

CITY           SKY/WX    TMP DP  RH WIND       PRES   REMARKS
NORTON KS      SUNNY     75  50  41 N24G36    29.93
SHARON SPRINGS   N/A     76  50  39 N20G29      N/A
KIT CARSON CO    N/A     74  43  32 MISG        N/A
$$


USA.gov is the U.S. government's official web portal to all federal, state and local government web resources and services.